Weather History for Darwin Airport, Northern Territory

Change the Weather History Date:

Sunday, May 19, 2013

  Actual Average Record
Temperature  
Mean Temperature 83 °F -  
Max Temperature 88 °F 88 °F - ()
Min Temperature 78 °F 69 °F - ()
Cooling Degree Days 18    
Growing Degree Days 33 (Base 50)    
Moisture  
Dew Point 74 °F    
Average Humidity 77    
Maximum Humidity 94    
Minimum Humidity 51    
Precipitation  
Precipitation 0.00 in 0.02 in - ()
Sea Level Pressure  
Sea Level Pressure 29.86 in    
Wind  
Wind Speed 9 mph ()    
Max Wind Speed 20 mph    
Max Gust Speed -    
Visibility 8.6 miles    
Events Rain    
T = Trace of Precipitation, MM = Missing Value Source: Averaged Metar Reports

Daily Weather History Graph

Daily Weather History Graph

Search for Another Location

Airport:

Trip Planner

Search our weather history database for the weather conditions in past years. The results will help you decide how hot, cold, wet, or windy it might be!

Date:

Astronomy

May. 19, 2013 Rise Set
Actual Time 6:57 AM ACST 6:28 PM ACST
Civil Twilight 6:34 AM ACST 6:50 PM ACST
Nautical Twilight 6:09 AM ACST 7:16 PM ACST
Astronomical Twilight 5:43 AM ACST 7:42 PM ACST
Moon 1:40 PM ACST (5/19) 1:08 AM ACST (5/19)
Length of Visible Light 12h 15m
Length of Day
11h 30m
First Quarter, 59% of the Moon is Illuminated
May 19
First Quarter
May 25
Full
Jun 1
Last Quarter
Jun 9
New
Jun 17
First Quarter

Hourly Weather History & Observations

Time (ACST) Temp. Heat Index Dew Point Humidity Pressure Visibility Wind Dir Wind Speed Gust Speed Precip Events Conditions
12:00 AM 80 °F - 76 °F 86% 29.88 in 19 mi SE 5.8 mph - -   Partly Cloudy
12:00 AM 78.8 °F - 77.0 °F 94% 29.89 in 6.2 mi SE 5.8 mph - N/A   Overcast
12:30 AM 79 °F - 77 °F 91% 29.88 in - SE 4.6 mph - -  
12:30 AM 78.8 °F - 77.0 °F 94% 29.89 in 6.2 mi SE 4.6 mph - N/A   Overcast
1:00 AM 78.8 °F - 77.0 °F 94% 29.89 in 6.2 mi SE 5.8 mph - N/A   Mostly Cloudy
1:30 AM 78.8 °F - 77.0 °F 94% 29.86 in - ENE 6.9 mph - N/A   Clear
2:00 AM 78.8 °F - 77.0 °F 94% 29.86 in - ENE 5.8 mph - N/A   Clear
2:30 AM 78.8 °F - 75.2 °F 89% 29.86 in - East 5.8 mph - N/A   Clear
3:00 AM 79 °F - 76 °F 86% 29.86 in 19 mi ESE 5.8 mph - -   Partly Cloudy
3:00 AM 78.8 °F - 75.2 °F 89% 29.86 in - ESE 5.8 mph - N/A   Clear
3:30 AM 78 °F - 76 °F 91% 29.85 in - East 6.9 mph - -  
3:30 AM 78.8 °F - 75.2 °F 89% 29.83 in 6.2 mi East 6.9 mph - N/A   Mostly Cloudy
4:07 AM 78.8 °F - 75.2 °F 89% 29.83 in 6.2 mi East 9.2 mph - N/A Rain Rain Showers
4:09 AM 78.8 °F - 75.2 °F 89% 29.83 in 6.2 mi East 9.2 mph - N/A Rain Rain Showers
4:22 AM 78.8 °F - 75.2 °F 89% 29.83 in 6.2 mi ESE 8.1 mph - N/A   Overcast
4:30 AM 78.8 °F - 77.0 °F 94% 29.83 in 6.2 mi East 8.1 mph - N/A   Overcast
5:00 AM 78.8 °F - 77.0 °F 94% 29.83 in 6.2 mi ESE 6.9 mph - N/A   Overcast
5:30 AM 78.8 °F - 77.0 °F 94% 29.86 in 6.2 mi East 9.2 mph - N/A   Overcast
6:00 AM 78 °F - 76 °F 93% 29.86 in 19 mi ESE 9.2 mph - -   Partly Cloudy
6:00 AM 78.8 °F - 77.0 °F 94% 29.86 in 6.2 mi ESE 9.2 mph - N/A   Mostly Cloudy
6:30 AM 78 °F - 76 °F 92% 29.86 in - ESE 8.1 mph - -  
6:30 AM 78.8 °F - 77.0 °F 94% 29.86 in 6.2 mi ESE 8.1 mph - N/A   Mostly Cloudy
7:00 AM 78.8 °F - 75.2 °F 89% 29.86 in 6.2 mi East 9.2 mph - N/A   Mostly Cloudy
7:30 AM 78.8 °F - 75.2 °F 89% 29.86 in 6.2 mi East 12.7 mph - N/A   Mostly Cloudy
8:00 AM 80.6 °F 85.4 °F 73.4 °F 79% 29.89 in 6.2 mi East 15.0 mph - N/A   Mostly Cloudy
8:30 AM 80.6 °F 85.4 °F 73.4 °F 79% 29.89 in 6.2 mi East 12.7 mph - N/A   Mostly Cloudy
9:00 AM 83 °F - 73 °F 66% 29.90 in 19 mi East 16.1 mph - -   Partly Cloudy
9:00 AM 82.4 °F 88.2 °F 73.4 °F 74% 29.89 in 6.2 mi East 16.1 mph - N/A   Mostly Cloudy
9:30 AM 83 °F - 73 °F 64% 29.91 in - East 17.3 mph - -  
9:30 AM 84.2 °F 90.9 °F 73.4 °F 70% 29.89 in 6.2 mi East 17.3 mph - N/A   Mostly Cloudy
10:00 AM 84.2 °F 90.9 °F 73.4 °F 70% 29.92 in 6.2 mi East 17.3 mph - N/A   Mostly Cloudy
10:30 AM 84.2 °F 90.9 °F 73.4 °F 70% 29.92 in 6.2 mi East 19.6 mph - N/A   Mostly Cloudy
11:00 AM 87.8 °F 95.6 °F 73.4 °F 62% 29.89 in 6.2 mi East 16.1 mph - N/A   Mostly Cloudy
11:30 AM 86.0 °F 91.8 °F 71.6 °F 62% 29.89 in 6.2 mi ENE 18.4 mph - N/A   Mostly Cloudy
12:00 PM 87 °F - 73 °F 54% 29.89 in 19 mi ENE 17.3 mph - -   Partly Cloudy
12:00 PM 87.8 °F 95.6 °F 73.4 °F 62% 29.89 in 6.2 mi ENE 17.3 mph - N/A   Mostly Cloudy
12:30 PM 88 °F - 72 °F 51% 29.88 in - NE 17.3 mph - -  
12:30 PM 87.8 °F 93.8 °F 71.6 °F 58% 29.86 in 6.2 mi NE 17.3 mph - N/A   Mostly Cloudy
1:00 PM 87.8 °F 93.8 °F 71.6 °F 58% 29.86 in 6.2 mi East 13.8 mph - N/A   Mostly Cloudy
1:30 PM 87.8 °F 93.8 °F 71.6 °F 58% 29.83 in 6.2 mi ENE 13.8 mph - N/A   Mostly Cloudy
2:00 PM 87.8 °F 95.6 °F 73.4 °F 62% 29.83 in 6.2 mi ENE 10.4 mph - N/A   Mostly Cloudy
2:16 PM 86.0 °F 93.4 °F 73.4 °F 66% 29.83 in 6.2 mi ENE 16.1 mph - N/A Rain Light Rain Showers
2:30 PM 86.0 °F 95.1 °F 75.2 °F 70% 29.83 in 5.0 mi NE 12.7 mph - N/A   Partly Cloudy
3:00 PM 86 °F - 75 °F 64% 29.82 in 19 mi NE 10.4 mph - -   Partly Cloudy
3:00 PM 86.0 °F 95.1 °F 75.2 °F 70% 29.80 in 6.2 mi NE 10.4 mph - N/A   Mostly Cloudy
3:30 PM 88 °F - 73 °F 53% 29.82 in - NE 13.8 mph - -  
3:30 PM 87.8 °F 95.6 °F 73.4 °F 62% 29.80 in 6.2 mi NE 13.8 mph - N/A   Mostly Cloudy
4:00 PM 87.8 °F 95.6 °F 73.4 °F 62% 29.80 in 6.2 mi NNE 13.8 mph - N/A   Mostly Cloudy
4:30 PM 87.8 °F 93.8 °F 71.6 °F 58% 29.80 in 6.2 mi NE 13.8 mph - N/A   Mostly Cloudy
5:00 PM 87.8 °F 93.8 °F 71.6 °F 58% 29.80 in 6.2 mi NE 12.7 mph - N/A   Mostly Cloudy
5:30 PM 86.0 °F 93.4 °F 73.4 °F 66% 29.83 in - NE 11.5 mph - N/A   Clear
6:00 PM 85 °F - 72 °F 58% 29.84 in 19 mi NE 11.5 mph - -   Partly Cloudy
6:00 PM 86.0 °F 91.8 °F 71.6 °F 62% 29.83 in - NE 11.5 mph - N/A   Clear
6:30 PM 84 °F - 74 °F 65% 29.85 in - NNE 10.4 mph - -  
6:30 PM 84.2 °F 90.9 °F 73.4 °F 70% 29.86 in - NNE 10.4 mph - N/A   Clear
7:00 PM 82.4 °F 88.2 °F 73.4 °F 74% 29.86 in - NE 8.1 mph - N/A   Clear
7:30 PM 82.4 °F 88.2 °F 73.4 °F 74% 29.86 in - NE 8.1 mph - N/A   Clear
8:00 PM 82.4 °F 89.5 °F 75.2 °F 79% 29.86 in - NE 6.9 mph - N/A   Clear
8:30 PM 82.4 °F 88.2 °F 73.4 °F 74% 29.86 in - NNE 5.8 mph - N/A   Clear
9:00 PM 81 °F - 74 °F 75% 29.88 in 19 mi ENE 5.8 mph - -   Partly Cloudy
9:00 PM 80.6 °F 86.2 °F 75.2 °F 84% 29.86 in - ENE 5.8 mph - N/A   Clear
9:30 PM 81 °F - 74 °F 75% 29.88 in - ENE 5.8 mph - -  
9:30 PM 80.6 °F 86.2 °F 75.2 °F 84% 29.89 in - ENE 5.8 mph - N/A   Clear
10:00 PM 80.6 °F 86.2 °F 75.2 °F 84% 29.89 in - ENE 8.1 mph - N/A   Clear
10:30 PM 80.6 °F 86.2 °F 75.2 °F 84% 29.89 in - NE 9.2 mph - N/A   Clear
11:00 PM 80.6 °F 86.2 °F 75.2 °F 84% 29.89 in - NE 8.1 mph - N/A   Clear
11:30 PM 80.6 °F 86.2 °F 75.2 °F 84% 29.89 in - NE 8.1 mph - N/A   Clear